When you browse on this site, cookies collect data to enhance your experience and personalize the content and advertising you see.
Visit our Privacy Policy to learn more. By continuing to use the site, you agree to this use of cookies and data.
  • în România
  • Lista ţărilor
  • Pe 7 zile
  • Temperatura apei
  • Hartă satelitară
  • Meteo pe hartă
  • Widget-uri
  • user-avatar
    Intrare

    Meteo pe oră la Kokkosalma

    Astăzi, 22 Februarie, Vineri

    Timp Temperatura Precipitaţii Vânt Presiune Umiditate
    00:00 -14°C° 0 mm 5 m/s 753 mmHg 89%
    01:00 -13°C° 0 mm 5 m/s 754 mmHg 89%
    02:00 -12°C° 0 mm 4 m/s 755 mmHg 89%
    03:00 -12°C° 0 mm 4 m/s 755 mmHg 89%
    04:00 -12°C° 0 mm 4 m/s 756 mmHg 89%
    05:00 -12°C° 0 mm 4 m/s 756 mmHg 89%
    06:00 -14°C° 0 mm 4 m/s 757 mmHg 90%
    07:00 -14°C° 0 mm 4 m/s 758 mmHg 92%
    08:00 -15°C° 0 mm 4 m/s 758 mmHg 92%
    09:00 -15°C° 0 mm 4 m/s 759 mmHg 90%
    10:00 -14°C° 0 mm 3 m/s 759 mmHg 88%
    11:00 -13°C° 0 mm 3 m/s 759 mmHg 86%
    12:00 -13°C° 0 mm 3 m/s 759 mmHg 85%
    13:00 -13°C° 0 mm 3 m/s 759 mmHg 84%
    14:00 -10°C° 0 mm 3 m/s 760 mmHg 83%
    15:00 -12°C° 0 mm 3 m/s 760 mmHg 84%
    16:00 -13°C° 0 mm 3 m/s 760 mmHg 86%
    17:00 -13°C° 0 mm 3 m/s 760 mmHg 87%
    18:00 -14°C° 0 mm 3 m/s 760 mmHg 88%
    19:00 -15°C° 0 mm 2 m/s 759 mmHg 89%
    20:00 -16°C° 0 mm 2 m/s 759 mmHg 90%
    21:00 -16°C° 0 mm 2 m/s 759 mmHg 89%
    22:00 -16°C° 0 mm 2 m/s 759 mmHg 88%
    23:00 -17°C° 0 mm 3 m/s 758 mmHg 87%

    Mâine, 23 Februarie, Sâmbătă

    Timp Temperatura Precipitaţii Vânt Presiune Umiditate
    00:00 -16°C° 0 mm 3 m/s 758 mmHg 83%
    01:00 -16°C° 0 mm 4 m/s 757 mmHg 79%
    02:00 -15°C° 0 mm 4 m/s 756 mmHg 75%
    03:00 -14°C° 0 mm 5 m/s 755 mmHg 78%
    04:00 -14°C° 0 mm 5 m/s 754 mmHg 80%
    05:00 -14°C° 0 mm 6 m/s 753 mmHg 83%
    06:00 -14°C° 0.5 mm 6 m/s 752 mmHg 86%
    07:00 -12°C° 0.5 mm 5 m/s 751 mmHg 90%
    08:00 -11°C° 0.5 mm 5 m/s 750 mmHg 93%
    09:00 -11°C° 0.9 mm 5 m/s 750 mmHg 94%
    10:00 -10°C° 0.9 mm 5 m/s 749 mmHg 94%
    11:00 -9°C° 0.9 mm 4 m/s 748 mmHg 95%
    12:00 -8°C° 1.1 mm 4 m/s 748 mmHg 96%
    13:00 -7°C° 1.1 mm 3 m/s 748 mmHg 96%
    14:00 -6°C° 1.1 mm 3 m/s 747 mmHg 96%
    15:00 -5°C° 0.5 mm 2 m/s 747 mmHg 97%
    16:00 -4°C° 0.5 mm 2 m/s 747 mmHg 97%
    17:00 -2°C° 0.5 mm 1 m/s 747 mmHg 97%
    18:00 -1°C° 0 mm 1 m/s 747 mmHg 97%
    19:00 -1°C° 0 mm 1 m/s 748 mmHg 97%
    20:00 -2°C° 0 mm 2 m/s 748 mmHg 97%
    21:00 -1°C° 0 mm 2 m/s 748 mmHg 98%
    22:00 -1°C° 0 mm 2 m/s 748 mmHg 98%
    23:00 +1°C° 0 mm 2 m/s 749 mmHg 98%

    Poimâine, 24 Februarie, Duminică

    Timp Temperatura Precipitaţii Vânt Presiune Umiditate
    00:00 0°C° 0 mm 3 m/s 749 mmHg 98%
    01:00 0°C° 0 mm 3 m/s 749 mmHg 98%
    02:00 0°C° 0 mm 3 m/s 750 mmHg 98%
    03:00 0°C° 0 mm 3 m/s 750 mmHg 96%
    04:00 0°C° 0 mm 3 m/s 750 mmHg 95%
    05:00 -1°C° 0 mm 3 m/s 750 mmHg 94%
    06:00 -1°C° 0 mm 3 m/s 750 mmHg 94%
    07:00 -2°C° 0 mm 2 m/s 750 mmHg 95%
    08:00 -3°C° 0 mm 2 m/s 751 mmHg 95%
    09:00 -2°C° 0 mm 2 m/s 751 mmHg 96%
    10:00 -2°C° 0 mm 3 m/s 751 mmHg 97%
    11:00 -1°C° 0 mm 3 m/s 751 mmHg 97%
    12:00 -1°C° 0 mm 3 m/s 750 mmHg 97%
    13:00 -1°C° 0 mm 3 m/s 750 mmHg 98%
    14:00 -2°C° 0 mm 4 m/s 749 mmHg 98%
    15:00 -2°C° 0 mm 4 m/s 749 mmHg 97%
    16:00 -2°C° 0 mm 4 m/s 748 mmHg 96%
    17:00 -2°C° 0 mm 4 m/s 747 mmHg 96%
    18:00 -2°C° 0.2 mm 4 m/s 746 mmHg 96%
    19:00 -2°C° 0.2 mm 4 m/s 746 mmHg 96%
    20:00 -2°C° 0.2 mm 4 m/s 745 mmHg 96%
    21:00 -2°C° 1.1 mm 4 m/s 744 mmHg 96%
    22:00 -2°C° 1.1 mm 4 m/s 743 mmHg 95%
    23:00 -1°C° 1.1 mm 4 m/s 742 mmHg 95%

    25 Februarie, Luni

    Timp Temperatura Precipitaţii Vânt Presiune Umiditate
    00:00 -1°C° 0.3 mm 4 m/s 742 mmHg 95%
    01:00 -1°C° 0.3 mm 4 m/s 742 mmHg 95%
    02:00 -1°C° 0.3 mm 5 m/s 741 mmHg 96%
    03:00 -1°C° 0 mm 5 m/s 741 mmHg 93%
    04:00 -1°C° 0 mm 5 m/s 741 mmHg 89%
    05:00 -3°C° 0 mm 6 m/s 741 mmHg 86%
    06:00 -2°C° 0.1 mm 5 m/s 740 mmHg 87%
    07:00 -2°C° 0.1 mm 5 m/s 740 mmHg 89%
    08:00 -2°C° 0.1 mm 5 m/s 740 mmHg 90%
    09:00 -2°C° 0.2 mm 5 m/s 740 mmHg 90%
    10:00 -2°C° 0.2 mm 5 m/s 739 mmHg 90%
    11:00 -1°C° 0.2 mm 5 m/s 739 mmHg 90%
    12:00 -1°C° 0.2 mm 5 m/s 739 mmHg 91%
    13:00 -1°C° 0.2 mm 4 m/s 740 mmHg 92%
    14:00 -1°C° 0.2 mm 4 m/s 740 mmHg 92%
    15:00 -1°C° 0 mm 5 m/s 740 mmHg 90%
    16:00 -2°C° 0 mm 5 m/s 741 mmHg 88%
    17:00 -2°C° 0 mm 5 m/s 742 mmHg 86%
    18:00 -3°C° 0 mm 4 m/s 742 mmHg 88%
    19:00 -4°C° 0 mm 4 m/s 743 mmHg 89%
    20:00 -5°C° 0 mm 3 m/s 744 mmHg 91%
    21:00 -4°C° 0 mm 3 m/s 744 mmHg 91%
    22:00 -2°C° 0 mm 3 m/s 744 mmHg 92%
    23:00 -1°C° 0 mm 3 m/s 744 mmHg 93%

    26 Februarie, Marţi

    Timp Temperatura Precipitaţii Vânt Presiune Umiditate
    00:00 -2°C° 0 mm 3 m/s 744 mmHg 93%
    01:00 -2°C° 0 mm 3 m/s 743 mmHg 94%
    02:00 -2°C° 0 mm 3 m/s 743 mmHg 94%
    03:00 -3°C° 0 mm 2 m/s 743 mmHg 95%
    04:00 -3°C° 0 mm 2 m/s 742 mmHg 96%
    05:00 -4°C° 0 mm 2 m/s 741 mmHg 97%
    06:00 -4°C° 0.1 mm 2 m/s 741 mmHg 97%
    07:00 -4°C° 0.1 mm 2 m/s 741 mmHg 97%
    08:00 -2°C° 0.1 mm 1 m/s 741 mmHg 97%
    09:00 -3°C° 0 mm 2 m/s 741 mmHg 96%
    10:00 -3°C° 0 mm 2 m/s 741 mmHg 95%
    11:00 -2°C° 0 mm 2 m/s 742 mmHg 93%
    12:00 -2°C° 0 mm 2 m/s 742 mmHg 92%
    13:00 -2°C° 0 mm 2 m/s 743 mmHg 91%
    14:00 -2°C° 0 mm 2 m/s 743 mmHg 89%
    15:00 -2°C° 0 mm 2 m/s 744 mmHg 90%
    16:00 -2°C° 0 mm 2 m/s 744 mmHg 91%
    17:00 -1°C° 0 mm 1 m/s 745 mmHg 92%
    18:00 -1°C° 0 mm 1 m/s 745 mmHg 93%
    19:00 -1°C° 0 mm 1 m/s 746 mmHg 94%
    20:00 -2°C° 0 mm 1 m/s 746 mmHg 95%
    21:00 -2°C° 0 mm 1 m/s 746 mmHg 96%
    22:00 -2°C° 0 mm 1 m/s 747 mmHg 96%
    23:00 -2°C° 0 mm 1 m/s 747 mmHg 97%

    27 Februarie, Miercuri

    Timp Temperatura Precipitaţii Vânt Presiune Umiditate
    00:00 -4°C° 0 mm 2 m/s 746 mmHg 97%
    01:00 -5°C° 0 mm 2 m/s 746 mmHg 96%
    02:00 -6°C° 0 mm 3 m/s 746 mmHg 96%
    03:00 -5°C° 0 mm 2 m/s 746 mmHg 95%
    04:00 -4°C° 0 mm 2 m/s 745 mmHg 95%
    05:00 -4°C° 0 mm 2 m/s 745 mmHg 94%
    06:00 -5°C° 0 mm 2 m/s 744 mmHg 94%
    07:00 -7°C° 0 mm 3 m/s 743 mmHg 95%
    08:00 -7°C° 0 mm 3 m/s 742 mmHg 95%
    09:00 -7°C° 0.2 mm 3 m/s 741 mmHg 95%
    10:00 -7°C° 0.2 mm 4 m/s 740 mmHg 94%
    11:00 -6°C° 0.2 mm 5 m/s 738 mmHg 93%
    12:00 -5°C° 0.5 mm 5 m/s 737 mmHg 93%
    13:00 -5°C° 0.5 mm 5 m/s 735 mmHg 93%
    14:00 -4°C° 0.5 mm 6 m/s 733 mmHg 92%
    15:00 -4°C° 0.3 mm 5 m/s 732 mmHg 93%
    16:00 -4°C° 0.3 mm 5 m/s 731 mmHg 93%
    17:00 -4°C° 0.3 mm 5 m/s 729 mmHg 93%
    18:00 -3°C° 0.1 mm 4 m/s 728 mmHg 94%
    19:00 -3°C° 0.1 mm 4 m/s 727 mmHg 94%
    20:00 -2°C° 0.1 mm 3 m/s 726 mmHg 95%
    21:00 -2°C° 0.2 mm 3 m/s 725 mmHg 95%
    22:00 -2°C° 0.2 mm 3 m/s 724 mmHg 96%
    23:00 -2°C° 0.2 mm 2 m/s 723 mmHg 96%
    Arată mai mult